FLI1411 BIKF-EKVG

Flight info

Callsign FLI1411
Flight time 1h 10m
Altitude 37000
Route OSKUM3C OSKUM DCT MAGNI
Aircraft A320/M-SDE3FGHIRWY/LB1

Departure

Time 2026-04-27 11:48
Airport Keflavik International Airport (BIKF)

Arrival

Time 2026-04-27 12:59
Airport Vágar Airport (EKVG)
Time Latitude Longitude Altitude Speed Heading
2026-04-27 11:19 63.99283 -22.62198 141 ft 0 kts 316°
2026-04-27 11:40 63.99283 -22.62197 141 ft 1 kts 316°
2026-04-27 11:40 63.99265 -22.62158 141 ft 4 kts 316°
2026-04-27 11:41 63.99249 -22.62122 141 ft 2 kts 316°
2026-04-27 11:41 63.99239 -22.62081 141 ft 4 kts 271°
2026-04-27 11:41 63.99241 -22.62023 141 ft 4 kts 243°
2026-04-27 11:41 63.99258 -22.61988 141 ft 4 kts 187°
2026-04-27 11:42 63.99260 -22.61986 141 ft 4 kts 180°
2026-04-27 11:42 63.99241 -22.61986 141 ft 0 kts 180°
2026-04-27 11:44 63.99214 -22.61986 141 ft 7 kts 180°
2026-04-27 11:44 63.99174 -22.61927 141 ft 9 kts 106°
2026-04-27 11:44 63.99173 -22.61780 143 ft 8 kts 89°
2026-04-27 11:45 63.99173 -22.61654 146 ft 10 kts 90°
2026-04-27 11:45 63.99173 -22.61535 149 ft 13 kts 90°
2026-04-27 11:45 63.99173 -22.61262 154 ft 13 kts 90°
2026-04-27 11:45 63.99173 -22.61057 159 ft 14 kts 90°
2026-04-27 11:46 63.99173 -22.60802 165 ft 17 kts 90°
2026-04-27 11:46 63.99170 -22.60576 173 ft 11 kts 108°
2026-04-27 11:46 63.99112 -22.60539 174 ft 7 kts 180°
2026-04-27 11:46 63.99091 -22.60539 174 ft 0 kts 180°
2026-04-27 11:47 63.99001 -22.60540 173 ft 43 kts 180°
2026-04-27 11:47 63.98444 -22.60542 181 ft 112 kts 180°
2026-04-27 11:47 63.97486 -22.60550 276 ft 154 kts 180°
2026-04-27 11:48 63.96783 -22.60587 753 ft 152 kts 178°
2026-04-27 11:48 63.95400 -22.60207 1939 ft 155 kts 152°
2026-04-27 11:48 63.94872 -22.58940 2228 ft 181 kts 123°
2026-04-27 11:48 63.94147 -22.55043 2782 ft 218 kts 119°
2026-04-27 11:49 63.93737 -22.52807 3118 ft 234 kts 118°
2026-04-27 11:49 63.93096 -22.49324 3866 ft 246 kts 119°
2026-04-27 11:49 63.92423 -22.45690 4752 ft 252 kts 120°
2026-04-27 11:49 63.91730 -22.41994 5574 ft 260 kts 121°
2026-04-27 11:50 63.91002 -22.38162 6373 ft 268 kts 122°
2026-04-27 11:50 63.90250 -22.34221 7144 ft 275 kts 123°
2026-04-27 11:50 63.89473 -22.30173 7924 ft 282 kts 123°
2026-04-27 11:50 63.88671 -22.26020 8706 ft 290 kts 123°
2026-04-27 11:51 63.87860 -22.21838 9521 ft 296 kts 123°
2026-04-27 11:51 63.87010 -22.17480 10164 ft 309 kts 123°
2026-04-27 11:51 63.85142 -22.08026 11141 ft 340 kts 122°
2026-04-27 11:52 63.84194 -22.03049 11911 ft 348 kts 118°
2026-04-27 11:52 63.83560 -21.97641 12715 ft 362 kts 106°
2026-04-27 11:52 63.83251 -21.91933 13508 ft 368 kts 104°
2026-04-27 11:52 63.82937 -21.86147 14224 ft 371 kts 104°
2026-04-27 11:53 63.82609 -21.80304 14900 ft 375 kts 104°
2026-04-27 11:53 63.82274 -21.74402 15558 ft 379 kts 104°
2026-04-27 11:53 63.81938 -21.68510 16207 ft 383 kts 104°
2026-04-27 11:53 63.81592 -21.62489 16869 ft 387 kts 104°
2026-04-27 11:54 63.81238 -21.56401 17519 ft 391 kts 105°
2026-04-27 11:54 63.80879 -21.50257 18192 ft 395 kts 104°
2026-04-27 11:54 63.80516 -21.44042 18757 ft 399 kts 104°
2026-04-27 11:54 63.80150 -21.37816 19367 ft 403 kts 104°
2026-04-27 11:55 63.79774 -21.31462 19995 ft 407 kts 104°
2026-04-27 11:55 63.79399 -21.25137 20623 ft 412 kts 104°
2026-04-27 11:55 63.79013 -21.18675 21224 ft 415 kts 104°
2026-04-27 11:55 63.78618 -21.12150 21802 ft 419 kts 104°
2026-04-27 11:56 63.78216 -21.05574 22363 ft 423 kts 104°
2026-04-27 11:56 63.77713 -20.99002 22919 ft 422 kts 111°
2026-04-27 11:56 63.76962 -20.92570 23437 ft 426 kts 112°
2026-04-27 11:56 63.76203 -20.86150 23870 ft 431 kts 112°
2026-04-27 11:57 63.75425 -20.79572 24326 ft 435 kts 112°
2026-04-27 11:57 63.74641 -20.72920 24772 ft 437 kts 112°
2026-04-27 11:57 63.73858 -20.66269 25221 ft 440 kts 112°
2026-04-27 11:57 63.73063 -20.59539 25645 ft 443 kts 112°
2026-04-27 11:58 63.72260 -20.52810 26067 ft 446 kts 112°
2026-04-27 11:58 63.71454 -20.46083 26402 ft 451 kts 111°
2026-04-27 11:58 63.70839 -20.39076 26772 ft 459 kts 106°
2026-04-27 11:58 63.70302 -20.31949 27172 ft 461 kts 106°
2026-04-27 11:59 63.69751 -20.24751 27552 ft 464 kts 106°
2026-04-27 11:59 63.69199 -20.17622 27939 ft 467 kts 106°
2026-04-27 11:59 63.68634 -20.10375 28340 ft 470 kts 106°
2026-04-27 11:59 63.68063 -20.03072 28748 ft 473 kts 106°
2026-04-27 12:00 63.67486 -19.95739 29149 ft 475 kts 106°
2026-04-27 12:00 63.66905 -19.88381 29514 ft 478 kts 106°
2026-04-27 12:00 63.66322 -19.81064 29873 ft 480 kts 107°
2026-04-27 12:00 63.65725 -19.73622 30189 ft 483 kts 107°
2026-04-27 12:01 63.65121 -19.66137 30440 ft 485 kts 107°
2026-04-27 12:01 63.64512 -19.58616 30740 ft 487 kts 105°
2026-04-27 12:01 63.63901 -19.51105 31028 ft 489 kts 105°
2026-04-27 12:01 63.63281 -19.43570 31330 ft 491 kts 105°
2026-04-27 12:02 63.62658 -19.36077 31608 ft 492 kts 106°
2026-04-27 12:02 63.62023 -19.28499 31985 ft 491 kts 106°
2026-04-27 12:02 63.61383 -19.20933 32402 ft 490 kts 106°
2026-04-27 12:02 63.60740 -19.13401 32808 ft 489 kts 106°
2026-04-27 12:03 63.60096 -19.05911 33183 ft 487 kts 106°
2026-04-27 12:03 63.59458 -18.98510 33547 ft 487 kts 106°
2026-04-27 12:03 63.58813 -18.91038 33919 ft 486 kts 106°
2026-04-27 12:03 63.58171 -18.83580 34271 ft 485 kts 106°
2026-04-27 12:04 63.57524 -18.76113 34588 ft 484 kts 105°
2026-04-27 12:04 63.56880 -18.68798 34913 ft 483 kts 105°
2026-04-27 12:04 63.56224 -18.61405 35217 ft 482 kts 105°
2026-04-27 12:04 63.55566 -18.54006 35517 ft 481 kts 105°
2026-04-27 12:05 63.54906 -18.46651 35801 ft 481 kts 105°
2026-04-27 12:05 63.54238 -18.39284 36089 ft 480 kts 105°
2026-04-27 12:05 63.53567 -18.31934 36355 ft 480 kts 105°
2026-04-27 12:05 63.52903 -18.24703 36612 ft 479 kts 105°
2026-04-27 12:06 63.52229 -18.17358 36867 ft 479 kts 105°
2026-04-27 12:06 63.51554 -18.10033 37028 ft 478 kts 105°
2026-04-27 12:06 63.50880 -18.02740 37069 ft 475 kts 105°
2026-04-27 12:07 63.49530 -17.88326 37072 ft 474 kts 105°
2026-04-27 12:07 63.48147 -17.73809 37070 ft 477 kts 106°
2026-04-27 12:08 63.46754 -17.59375 37073 ft 477 kts 106°
2026-04-27 12:08 63.45347 -17.44855 37076 ft 477 kts 106°
2026-04-27 12:09 63.43929 -17.30343 37085 ft 477 kts 106°
2026-04-27 12:09 63.42487 -17.15819 37089 ft 477 kts 106°
2026-04-27 12:10 63.41028 -17.01371 37072 ft 476 kts 106°
2026-04-27 12:10 63.39568 -16.87026 37077 ft 477 kts 106°
2026-04-27 12:11 63.38079 -16.72553 37078 ft 477 kts 106°
2026-04-27 12:11 63.36593 -16.58203 37083 ft 478 kts 106°
2026-04-27 12:12 63.35078 -16.43738 37090 ft 478 kts 106°
2026-04-27 12:12 63.33545 -16.29296 37101 ft 478 kts 106°
2026-04-27 12:13 63.32003 -16.14971 37113 ft 478 kts 106°
2026-04-27 12:13 63.30440 -16.00539 37119 ft 478 kts 106°
2026-04-27 12:14 63.28884 -15.86230 37123 ft 478 kts 107°
2026-04-27 12:14 63.27299 -15.71868 37126 ft 478 kts 107°
2026-04-27 12:15 63.25694 -15.57515 37133 ft 477 kts 107°
2026-04-27 12:15 63.24084 -15.43288 37134 ft 477 kts 107°
2026-04-27 12:16 63.22447 -15.29007 37103 ft 477 kts 106°
2026-04-27 12:16 63.20800 -15.14722 37112 ft 477 kts 106°
2026-04-27 12:17 63.19150 -15.00487 37129 ft 478 kts 106°
2026-04-27 12:17 63.17482 -14.86232 37142 ft 478 kts 106°
2026-04-27 12:18 63.15794 -14.71984 37143 ft 478 kts 107°
2026-04-27 12:18 63.14095 -14.57837 37155 ft 478 kts 107°
2026-04-27 12:19 63.12369 -14.43602 37166 ft 478 kts 106°
2026-04-27 12:19 63.10655 -14.29486 37169 ft 478 kts 106°
2026-04-27 12:20 63.08919 -14.15277 37169 ft 479 kts 106°
2026-04-27 12:20 63.07162 -14.01146 37170 ft 479 kts 107°
2026-04-27 12:21 63.05380 -13.86954 37160 ft 479 kts 106°
2026-04-27 12:21 63.03577 -13.72799 37181 ft 479 kts 106°
2026-04-27 12:22 63.01776 -13.58675 37202 ft 478 kts 106°
2026-04-27 12:22 62.99975 -13.44639 37201 ft 478 kts 106°
2026-04-27 12:23 62.98137 -13.30529 37207 ft 478 kts 106°
2026-04-27 12:23 62.96296 -13.16473 37214 ft 478 kts 106°
2026-04-27 12:24 62.94442 -13.02477 37217 ft 478 kts 106°
2026-04-27 12:24 62.92564 -12.88399 37223 ft 478 kts 106°
2026-04-27 12:25 62.90691 -12.74462 37233 ft 478 kts 106°
2026-04-27 12:25 62.88787 -12.60440 37232 ft 479 kts 106°
2026-04-27 12:26 62.86882 -12.46505 37216 ft 479 kts 105°
2026-04-27 12:26 62.85277 -12.34878 37229 ft 478 kts 106°
2026-04-27 12:27 62.83020 -12.18672 37248 ft 477 kts 106°
2026-04-27 12:27 62.81399 -12.07104 37252 ft 477 kts 106°
2026-04-27 12:28 62.79110 -11.90955 37269 ft 478 kts 106°
2026-04-27 12:28 62.77461 -11.79402 37258 ft 478 kts 106°
2026-04-27 12:29 62.75463 -11.65492 37258 ft 478 kts 106°
2026-04-27 12:29 62.73463 -11.51687 37262 ft 479 kts 106°
2026-04-27 12:30 62.71445 -11.37820 37257 ft 479 kts 106°
2026-04-27 12:30 62.69414 -11.24051 37265 ft 479 kts 107°
2026-04-27 12:31 62.67361 -11.10231 37272 ft 479 kts 106°
2026-04-27 12:31 62.65309 -10.96511 37285 ft 479 kts 106°
2026-04-27 12:32 62.63222 -10.82706 37289 ft 478 kts 106°
2026-04-27 12:32 62.61134 -10.69012 37288 ft 478 kts 106°
2026-04-27 12:33 62.59022 -10.55292 37300 ft 478 kts 106°
2026-04-27 12:33 62.56921 -10.41673 37300 ft 478 kts 107°
2026-04-27 12:34 62.54789 -10.27984 37321 ft 478 kts 106°
2026-04-27 12:34 62.52659 -10.14366 37296 ft 479 kts 106°
2026-04-27 12:35 62.50495 -10.00630 37298 ft 480 kts 107°
2026-04-27 12:35 62.48322 -9.87026 37298 ft 481 kts 107°
2026-04-27 12:36 62.46117 -9.73321 37191 ft 480 kts 107°
2026-04-27 12:36 62.45021 -9.66531 36171 ft 478 kts 107°
2026-04-27 12:36 62.43920 -9.59729 34791 ft 483 kts 107°
2026-04-27 12:36 62.42819 -9.52925 33520 ft 485 kts 107°
2026-04-27 12:37 62.41706 -9.46077 32410 ft 482 kts 107°
2026-04-27 12:37 62.40590 -9.39269 31451 ft 475 kts 107°
2026-04-27 12:37 62.39488 -9.32573 30556 ft 467 kts 107°
2026-04-27 12:37 62.38419 -9.26092 29603 ft 460 kts 107°
2026-04-27 12:38 62.37353 -9.19652 28653 ft 452 kts 107°
2026-04-27 12:38 62.36296 -9.13301 27763 ft 444 kts 108°
2026-04-27 12:38 62.35271 -9.07165 27171 ft 430 kts 108°
2026-04-27 12:38 62.34272 -9.01201 26756 ft 412 kts 108°
2026-04-27 12:39 62.33316 -8.95527 26279 ft 399 kts 108°
2026-04-27 12:39 62.32379 -8.89986 25793 ft 387 kts 108°
2026-04-27 12:39 62.31473 -8.84623 25314 ft 376 kts 108°
2026-04-27 12:39 62.30590 -8.79413 24842 ft 366 kts 108°
2026-04-27 12:40 62.29722 -8.74298 24380 ft 363 kts 107°
2026-04-27 12:40 62.28857 -8.69219 23899 ft 360 kts 108°
2026-04-27 12:40 62.28004 -8.64225 23383 ft 358 kts 108°
2026-04-27 12:40 62.27144 -8.59193 22915 ft 358 kts 108°
2026-04-27 12:41 62.26282 -8.54171 22451 ft 357 kts 108°
2026-04-27 12:41 62.25418 -8.49153 22012 ft 356 kts 108°
2026-04-27 12:41 62.24568 -8.44216 21572 ft 356 kts 108°
2026-04-27 12:41 62.23700 -8.39187 21110 ft 356 kts 108°
2026-04-27 12:42 62.22839 -8.34202 20672 ft 356 kts 108°
2026-04-27 12:42 62.21989 -8.29297 20237 ft 356 kts 109°
2026-04-27 12:42 62.21121 -8.24313 19785 ft 356 kts 109°
2026-04-27 12:42 62.20248 -8.19313 19334 ft 357 kts 109°
2026-04-27 12:43 62.19386 -8.14366 18906 ft 358 kts 109°
2026-04-27 12:43 62.18503 -8.09327 18422 ft 358 kts 110°
2026-04-27 12:43 62.17621 -8.04329 17967 ft 357 kts 110°
2026-04-27 12:43 62.16750 -7.99428 17540 ft 356 kts 110°
2026-04-27 12:44 62.15870 -7.94490 17107 ft 355 kts 110°
2026-04-27 12:44 62.14989 -7.89543 16691 ft 353 kts 110°
2026-04-27 12:44 62.14114 -7.84633 16258 ft 352 kts 110°
2026-04-27 12:44 62.13225 -7.79746 15847 ft 350 kts 114°
2026-04-27 12:45 62.12178 -7.75132 15477 ft 348 kts 116°
2026-04-27 12:45 62.11067 -7.70535 15087 ft 346 kts 120°
2026-04-27 12:45 62.09766 -7.66203 14706 ft 345 kts 126°
2026-04-27 12:45 62.08281 -7.62194 14316 ft 343 kts 132°
2026-04-27 12:46 62.06704 -7.58450 13910 ft 341 kts 133°
2026-04-27 12:46 62.05103 -7.54653 13508 ft 338 kts 133°
2026-04-27 12:46 62.03556 -7.50980 13126 ft 335 kts 133°
2026-04-27 12:46 62.01998 -7.47290 12730 ft 332 kts 133°
2026-04-27 12:47 62.00455 -7.43643 12352 ft 329 kts 133°
2026-04-27 12:47 61.98922 -7.40026 11958 ft 327 kts 133°
2026-04-27 12:47 61.97422 -7.36496 11559 ft 325 kts 133°
2026-04-27 12:47 61.95911 -7.32935 11165 ft 322 kts 133°
2026-04-27 12:48 61.94410 -7.29398 10756 ft 321 kts 133°
2026-04-27 12:48 61.92927 -7.25908 10347 ft 319 kts 133°
2026-04-27 12:48 61.91449 -7.22443 10136 ft 309 kts 134°
2026-04-27 12:48 61.90016 -7.19095 9864 ft 302 kts 134°
2026-04-27 12:49 61.88624 -7.15856 9498 ft 299 kts 134°
2026-04-27 12:49 61.87217 -7.12595 9100 ft 296 kts 134°
2026-04-27 12:49 61.85829 -7.09369 8692 ft 294 kts 134°
2026-04-27 12:49 61.84461 -7.06181 8289 ft 292 kts 133°
2026-04-27 12:50 61.83331 -7.02681 7887 ft 292 kts 117°
2026-04-27 12:50 61.82678 -6.98609 7489 ft 291 kts 101°
2026-04-27 12:50 61.82575 -6.94342 7084 ft 290 kts 84°
2026-04-27 12:50 61.83017 -6.90211 6660 ft 288 kts 68°
2026-04-27 12:51 61.83961 -6.86504 6231 ft 286 kts 52°
2026-04-27 12:51 61.85330 -6.83439 5567 ft 290 kts 36°
2026-04-27 12:51 61.87087 -6.81239 4828 ft 293 kts 19°
2026-04-27 12:51 61.88964 -6.80199 4574 ft 267 kts
2026-04-27 12:52 61.90722 -6.80127 4456 ft 239 kts 351°
2026-04-27 12:52 61.92272 -6.80807 4355 ft 217 kts 338°
2026-04-27 12:52 61.93623 -6.82077 4270 ft 212 kts 326°
2026-04-27 12:52 61.94814 -6.83884 4172 ft 205 kts 315°
2026-04-27 12:53 61.96484 -6.88345 4007 ft 183 kts 295°
2026-04-27 12:53 61.97074 -6.90697 4038 ft 174 kts 295°
2026-04-27 12:53 61.97600 -6.92761 4017 ft 146 kts 295°
2026-04-27 12:54 61.98058 -6.94562 3985 ft 135 kts 294°
2026-04-27 12:54 61.98502 -6.96324 3875 ft 134 kts 294°
2026-04-27 12:54 61.98942 -6.98070 3698 ft 133 kts 294°
2026-04-27 12:54 61.99379 -6.99807 3514 ft 133 kts 295°
2026-04-27 12:55 61.99815 -7.01542 3307 ft 133 kts 294°
2026-04-27 12:55 62.00252 -7.03279 3098 ft 133 kts 294°
2026-04-27 12:55 62.00686 -7.05003 2882 ft 132 kts 294°
2026-04-27 12:55 62.01120 -7.06733 2670 ft 132 kts 294°
2026-04-27 12:56 62.01552 -7.08455 2470 ft 132 kts 294°
2026-04-27 12:56 62.01980 -7.10160 2262 ft 132 kts 294°
2026-04-27 12:56 62.02411 -7.11883 2049 ft 132 kts 295°
2026-04-27 12:56 62.02840 -7.13596 1835 ft 131 kts 295°
2026-04-27 12:57 62.03270 -7.15313 1619 ft 131 kts 294°
2026-04-27 12:57 62.03698 -7.17026 1404 ft 131 kts 294°
2026-04-27 12:57 62.04129 -7.18752 1187 ft 133 kts 295°
2026-04-27 12:57 62.04564 -7.20494 965 ft 135 kts 296°
2026-04-27 12:58 62.05012 -7.22292 744 ft 138 kts 296°
2026-04-27 12:58 62.05469 -7.24125 530 ft 141 kts 297°
2026-04-27 12:58 62.05928 -7.25978 293 ft 141 kts 297°
2026-04-27 12:58 62.06317 -7.27549 286 ft 72 kts 297°
2026-04-27 12:59 62.06447 -7.28076 281 ft 18 kts 297°
2026-04-27 12:59 62.06507 -7.28144 280 ft 10 kts 24°
2026-04-27 12:59 62.06579 -7.28091 278 ft 11 kts
2026-04-27 12:59 62.06635 -7.28093 279 ft 5 kts 352°
2026-04-27 13:00 62.06667 -7.28109 279 ft 4 kts 346°
2026-04-27 13:00 62.06690 -7.28084 284 ft 3 kts 32°
2026-04-27 13:00 62.06705 -7.28063 279 ft 2 kts 38°
2026-04-27 13:00 62.06709 -7.28042 279 ft 1 kts 73°
2026-04-27 13:01 62.06710 -7.28041 279 ft 0 kts 73°
2026-04-27 13:01 62.06710 -7.28039 279 ft 0 kts 73°